Weather History for Sheridan, WY

Change the Weather History Date:

Tuesday, October 15, 2013

  Actual Average Record
Temperature  
Mean Temperature 35 °F 46 °F  
Max Temperature 48 °F 60 °F 85 °F (1958)
Min Temperature 21 °F 31 °F 17 °F (1992)
Degree Days  
Heating Degree Days 30 19  
Month to date heating degree days 346 249  
Since 1 July heating degree days 501 552  
Cooling Degree Days 0 0  
Month to date cooling degree days 0 0  
Year to date cooling degree days 592 418  
Moisture  
Dew Point 25 °F    
Average Humidity 63    
Maximum Humidity 88    
Minimum Humidity 38    
Precipitation  
Precipitation 0.00 in 0.05 in 0.90 in (1994)
Month to date precipitation 2.10 0.81  
Year to date precipitation 16.35 12.29  
Sea Level Pressure  
Sea Level Pressure 30.34 in    
Wind  
Wind Speed 7 mph (West)    
Max Wind Speed 16 mph    
Max Gust Speed 32 mph    
Visibility 10 miles    
Events      
T = Trace of Precipitation, MM = Missing Value Source: NWS Daily Summary

Daily Weather History Graph

Daily Weather History Graph

Search for Another Location

Airport:

Trip Planner

Search our weather history database for the weather conditions in past years. The results will help you decide how hot, cold, wet, or windy it might be!

Date:

Astronomy

Oct. 15, 2013 Rise Set
Actual Time 7:23 AM MDT 6:22 PM MDT
Civil Twilight 6:54 AM MDT 6:52 PM MDT
Nautical Twilight 6:20 AM MDT 7:25 PM MDT
Astronomical Twilight 5:46 AM MDT 7:59 PM MDT
Moon 4:36 PM MDT (10/15) 3:41 AM MDT (10/15)
Length of Visible Light 11h 57m
Length of Day
10h 58m
Waxing Gibbous, 88% of the Moon is Illuminated
Oct 15
Waxing Gibbous
Oct 18
Full
Oct 26
Last Quarter
Nov 3
New
Nov 9
First Quarter

Hourly Weather History & Observations

Time (MDT) Temp. Windchill Dew Point Humidity Pressure Visibility Wind Dir Wind Speed Gust Speed Precip Events Conditions
12:53 AM 36.0 °F 26.7 °F 27.0 °F 70% 30.44 in 10.0 mi WNW 15.0 mph - N/A   Overcast
1:53 AM 35.1 °F 26.9 °F 27.0 °F 72% 30.45 in 10.0 mi West 11.5 mph - N/A   Overcast
2:53 AM 35.1 °F 26.4 °F 26.1 °F 70% 30.44 in 10.0 mi West 12.7 mph - N/A   Mostly Cloudy
3:53 AM 35.1 °F 26.9 °F 26.1 °F 70% 30.42 in 10.0 mi West 11.5 mph - N/A   Overcast
4:53 AM 34.0 °F 26.6 °F 27.0 °F 75% 30.42 in 10.0 mi West 9.2 mph - N/A   Overcast
5:53 AM 34.0 °F 26.6 °F 27.0 °F 75% 30.43 in 10.0 mi West 9.2 mph - N/A   Overcast
6:53 AM 35.1 °F 27.4 °F 26.1 °F 70% 30.42 in 10.0 mi West 10.4 mph - N/A   Overcast
7:53 AM 35.1 °F 26.9 °F 25.0 °F 67% 30.42 in 10.0 mi West 11.5 mph - N/A   Overcast
8:53 AM 37.0 °F 29.8 °F 26.1 °F 65% 30.42 in 10.0 mi West 10.4 mph - N/A   Mostly Cloudy
9:53 AM 37.0 °F 30.4 °F 28.0 °F 70% 30.42 in 10.0 mi West 9.2 mph - N/A   Clear
10:53 AM 42.1 °F 35.7 °F 28.9 °F 60% 30.40 in 10.0 mi WNW 11.5 mph - N/A   Clear
11:53 AM 43.0 °F 37.2 °F 27.0 °F 53% 30.38 in 10.0 mi WNW 10.4 mph - N/A   Clear
12:53 PM 46.0 °F 42.5 °F 26.1 °F 46% 30.35 in 10.0 mi NW 6.9 mph - N/A   Clear
1:53 PM 46.0 °F 43.9 °F 23.0 °F 40% 30.30 in 10.0 mi Variable 4.6 mph - N/A   Clear
2:53 PM 46.0 °F - 24.1 °F 42% 30.28 in 10.0 mi Calm Calm - N/A   Clear
3:53 PM 45.0 °F 40.6 °F 25.0 °F 46% 30.27 in 10.0 mi NW 8.1 mph - N/A   Clear
4:53 PM 45.0 °F - 25.0 °F 46% 30.25 in 10.0 mi Calm Calm - N/A   Clear
5:53 PM 43.0 °F - 28.0 °F 56% 30.25 in 10.0 mi Calm Calm - N/A   Clear
6:53 PM 34.0 °F - 26.1 °F 73% 30.27 in 10.0 mi Calm Calm - N/A   Clear
7:53 PM 30.9 °F 26.2 °F 26.1 °F 82% 30.27 in 10.0 mi South 4.6 mph - N/A   Clear
8:53 PM 27.0 °F 23.0 °F 23.0 °F 85% 30.26 in 10.0 mi WNW 3.5 mph - N/A   Clear
9:53 PM 26.1 °F 18.4 °F 21.9 °F 84% 30.23 in 10.0 mi SSW 6.9 mph - N/A   Clear
10:53 PM 25.0 °F - 21.0 °F 85% 30.22 in 10.0 mi Calm Calm - N/A   Clear
11:53 PM 24.1 °F - 19.9 °F 84% 30.21 in 10.0 mi Calm Calm - N/A   Clear